User: anonymous   Login
Location: Oshawa
(43.9000°N, 78.8670°W)
Time: 13:08:58
(UTC-05:00)
Language:

Cosmos 1821 Rocket - Orbit

View from above orbital plane
View from above orbital plane
View from above satellite
View from above satellite

Ground track
Ground track

The orbit data is extracted from the following two-line orbital elements,

1 17526U 87017B   16341.75817693 +.00000140 +00000-0 +12609-3 0  9991
2 17526 082.9015 184.0242 0041122 133.9795 276.3891 13.76793727479611
Epoch (UTC): 06 December 2016 18:11:46
Eccentricity: 0.0041122
inclination: 82.9015°
perigee height: 945 km
apogee height: 1005 km
right ascension of ascending node: 184.0242°
argument of perigee: 133.9795°
revolutions per day: 13.76793727
mean anomaly at epoch: 276.3891°
orbit number at epoch: 47961

The dashed part of the orbit path shows where the satellite is in the earth's shadow,  

DLR